TimeCDT,TemperatureF,Dew PointF,Humidity,Sea Level PressureIn,VisibilityMPH,Wind Direction,Wind SpeedMPH,Gust SpeedMPH,PrecipitationIn,Events,Conditions,WindDirDegrees,DateUTC
12:58 AM,36.5,25.9,65,30.09,10.0,NW,6.9,-,N/A,,Clear,320,2013-03-11 05:58:00
1:58 AM,35.1,25.5,68,30.08,10.0,NW,10.4,-,N/A,,Clear,310,2013-03-11 06:58:00
2:58 AM,34.3,22.5,62,30.09,10.0,NNW,9.2,-,N/A,,Clear,330,2013-03-11 07:58:00
3:58 AM,32.9,21.0,62,30.08,10.0,NW,11.5,-,N/A,,Clear,320,2013-03-11 08:58:00
4:58 AM,32.0,19.2,59,30.07,10.0,NW,12.7,-,N/A,,Clear,320,2013-03-11 09:58:00
5:58 AM,30.7,18.7,61,30.07,10.0,NW,10.4,-,N/A,,Clear,320,2013-03-11 10:58:00
6:58 AM,29.8,17.6,60,30.09,10.0,NW,11.5,-,N/A,,Clear,320,2013-03-11 11:58:00
7:58 AM,29.3,17.1,60,30.09,10.0,NW,8.1,-,N/A,,Clear,320,2013-03-11 12:58:00
8:58 AM,32.7,17.2,53,30.09,10.0,NNW,6.9,-,N/A,,Clear,340,2013-03-11 13:58:00
9:58 AM,36.7,15.6,42,30.11,10.0,NNW,10.4,-,N/A,,Clear,330,2013-03-11 14:58:00
10:58 AM,41.0,16.0,36,30.10,10.0,NNW,4.6,-,N/A,,Clear,340,2013-03-11 15:58:00
11:58 AM,45.0,16.0,31,30.09,10.0,North,10.4,-,N/A,,Clear,360,2013-03-11 16:58:00
12:58 PM,48.9,19.6,31,30.08,10.0,North,3.5,-,N/A,,Clear,10,2013-03-11 17:58:00
1:58 PM,52.7,22.6,31,30.04,10.0,Variable,2.3,-,N/A,,Clear,0,2013-03-11 18:58:00
2:58 PM,54.1,23.0,30,30.01,10.0,Variable,5.8,-,N/A,,Clear,0,2013-03-11 19:58:00
3:44 PM,55.4,26.6,33,29.99,10.0,SSW,15.0,19.6,N/A,,Clear,200,2013-03-11 20:44:00
3:58 PM,57.7,26.2,30,30.00,10.0,SW,8.1,-,N/A,,Clear,220,2013-03-11 20:58:00
4:58 PM,59.0,27.7,30,29.98,10.0,West,4.6,-,N/A,,Clear,280,2013-03-11 21:58:00
5:58 PM,59.5,27.5,30,29.97,10.0,SSW,4.6,-,N/A,,Clear,210,2013-03-11 22:58:00
6:58 PM,58.5,29.3,33,29.97,10.0,SSW,6.9,-,N/A,,Clear,210,2013-03-11 23:58:00
7:58 PM,53.2,30.7,42,29.97,10.0,SE,5.8,-,N/A,,Clear,140,2013-03-12 00:58:00
8:58 PM,47.7,32.7,56,29.97,10.0,ESE,6.9,-,N/A,,Clear,120,2013-03-12 01:58:00
9:58 PM,46.4,31.6,56,29.98,10.0,SSE,6.9,-,N/A,,Clear,150,2013-03-12 02:58:00
10:58 PM,45.1,30.7,57,29.98,10.0,East,9.2,-,N/A,,Clear,100,2013-03-12 03:58:00
11:58 PM,45.3,30.2,56,29.99,10.0,SSE,6.9,-,N/A,,Clear,160,2013-03-12 04:58:00